Погода в Рамбуйе

Франция     48°38′49″N   1°49′48″E
темп.,
°C
ветер,
м/с
пор.,
м/с
влажн.,
%
обл.,
%
осадки,
мм/ч
давл.,
гПа
погр.,
м
21 января, чт
чт2101:00+10ююз14238596 1.6 9891255
04:00+9з11168786 5.1 992892
07:00+5юз7158276 5.6 996673
10:00+6юз8158167 0.0 998804
13:00+8ююз8146883 0.0 9971475
16:00+8ю91990100 1.8 9911236
19:00+9юз101983100 3.5 9881258
22:00+8юз11198595 0.4 9881234
22 января, пт
пт2201:00+6з7108898 1.9 989666
04:00+5сз2390100 0.5 991220
07:00+4юз128999 0.5 99238
10:00+5з1287100 0.1 994123
13:00+6сз2374100 0.1 995547
16:00+7зсз4675100 0.1 995831
19:00+4зюз3790100 0.1 997175
22:00+3юз4993100 0.0 997243
23 января, сб
сб2301:00+3юз5129392 0.0 996377
04:00+2юз5119218 0.0 996340
07:00+1ююз379518 0.0 995168
10:00+2юз1189100 0.0 99583
13:00+4сз3381100 0.2 996394
16:00+3сз6896100 0.8 997488
19:00+2з2495100 1.9 999273
22:000з33938 0.0 100072
24 января, вс
вс2401:00−1зюз23930 0.0 100354
04:00−1юз239086 0.0 100262
07:00−1ю369159 0.0 1001141
10:00+1ююз6109141 0.0 1000465
13:00+4з5107671 1.3 10001125
16:00+4з61068100 0.4 10001097
19:000зюз5128172 0.4 1002300
22:00+1зюз7148194 0.2 1003505
25 января, пн
пн2501:00+2з8148897 0.5 1004925
04:00+1з7139880 1.9 1006687
07:00+3з6129487 2.3 1008788
10:00+3з7148398 0.2 1010862
13:00+5з7137381 0.2 10121250
16:00+5з5117499 0.1 1012964
19:00+2зюз5128999 0.1 1014341
22:00+2зюз51088100 0.0 1016279